Location: Mascot Post Office (historical)
(40.2645°N, 99.5462°W)
Time: 02:40:07
(UTC+00:00)

Cosmos 44 Rocket - Pass Details

Date: 14 July 2020
Orbit: 650 x 740 km, 65.1° (Epoch: 14 August)

Event Time Altitude Azimuth Distance (km) Brightness Sun altitude
Exits shadow 05:51:41 46° 281° (WNW) 885 3.9 -26.9°
Maximum altitude 05:52:16 49° 306° (NW) 852 3.9 -27.0°
Drops below altitude 10° 05:56:52 10° 22° (NNE) 2,096 6.5 -27.2°
Sets 05:59:17 0° 28° (NNE) 3,026 7.3 -27.3°
